Theta_e
332 332 334 336 338 339 338 339 339 340 340 340 339 340 341 341 340 338 339 339 338 337 338 337 335 335 334 333 334 334 330 330 330 329 328 328 327 327 328 328 328 326 328 324 324 323 322 321 323 325 324 327 326 325 323 323 322 321 321 321 320 318 318
333 333 334 334 335 337 337 338 339 340 340 340 340 340 340 341 341 339 339 339 338 337 339 338 336 336 335 333 333 334 330 330 330 330 329 328 328 327 327 326 326 325 325 325 327 320 317 317 317 322 324 324 324 326 325 325 325 324 324 323 321 319 319
328 328 330 329 332 336 336 337 338 339 340 339 339 340 340 341 341 340 339 339 338 337 339 338 336 335 335 334 334 334 333 331 330 331 330 329 329 328 329 328 327 324 324 324 323 322 320 319 318 321 323 323 322 325 326 326 326 326 326 325 322 320 320
328 327 326 328 331 330 331 335 338 339 340 339 339 340 340 341 341 341 340 339 339 338 339 338 335 335 336 335 335 335 334 332 331 331 329 329 329 328 327 328 329 328 326 324 324 324 320 316 316 318 321 324 324 322 324 326 326 326 327 326 324 321 321
329 328 326 325 328 329 331 330 333 334 337 340 339 339 339 340 340 340 340 340 339 337 337 339 336 336 336 335 335 335 334 333 333 333 330 328 328 328 327 327 329 330 329 328 328 327 325 321 321 317 320 319 323 323 323 324 326 327 327 327 327 325 323
328 328 328 327 328 328 328 329 328 330 329 333 338 338 338 339 340 339 339 339 339 338 337 338 337 336 336 335 334 334 334 333 332 332 332 330 329 328 327 327 327 327 330 331 330 329 328 326 324 318 319 322 322 321 321 323 323 327 328 328 328 328 326
327 329 328 327 327 328 328 328 329 333 332 333 333 337 339 338 339 339 339 339 339 339 338 338 338 336 337 336 335 334 334 334 333 332 333 333 331 330 329 329 328 327 328 329 330 330 329 326 322 322 320 318 318 319 317 322 322 323 326 328 329 328 327
328 328 328 328 328 328 328 328 330 330 330 334 338 340 338 336 336 337 338 338 338 340 339 338 339 337 337 336 336 335 335 334 333 333 333 333 333 331 329 330 330 329 329 329 330 331 331 329 328 325 323 319 317 317 317 322 323 324 325 326 328 326 327
329 328 328 328 328 328 327 327 327 327 328 330 334 339 338 336 335 335 337 338 338 339 340 339 338 338 337 336 335 336 335 336 333 333 333 333 334 333 331 331 331 331 331 330 331 332 332 331 330 327 326 324 321 317 318 321 323 324 327 323 324 326 325
328 327 327 327 327 327 327 327 327 327 328 330 332 336 337 335 335 335 336 337 338 339 339 340 339 338 338 337 336 335 336 336 335 333 334 333 333 334 334 332 332 332 332 332 333 332 332 332 331 329 328 326 324 321 318 318 322 323 326 326 322 324 326
328 328 328 328 328 327 326 327 329 329 329 330 332 334 336 337 335 337 335 336 338 339 339 340 340 339 338 337 337 336 337 337 336 335 334 334 334 333 333 333 333 332 333 332 334 333 332 332 331 330 328 328 327 324 321 318 320 325 324 326 325 322 324
329 328 329 329 328 328 328 328 328 330 331 330 330 332 332 334 335 335 336 336 339 339 339 340 340 340 339 337 337 336 336 337 336 335 335 335 335 334 333 333 333 333 333 332 334 334 333 332 332 332 329 328 326 326 323 320 314 318 326 322 324 325 324
329 330 329 328 328 328 329 329 329 329 330 332 331 332 332 333 334 335 335 336 335 335 334 334 333 333 334 332 333 335 336 336 336 336 335 336 336 335 334 333 333 334 334 333 333 334 334 334 333 333 332 329 327 326 324 321 320 321 322 324 324 325 325
328 329 329 328 328 328 329 330 330 330 331 331 332 332 332 333 333 334 334 334 334 334 334 333 333 334 334 333 333 332 334 336 335 336 336 335 336 336 335 334 334 335 334 333 334 334 334 334 333 333 333 331 329 328 325 323 321 321 318 319 322 323 324
330 331 329 328 328 328 328 329 330 331 331 332 333 332 332 333 333 334 334 334 334 334 334 334 334 334 334 333 332 333 332 333 335 335 336 335 336 336 336 335 335 335 335 334 334 334 334 334 333 332 332 332 331 330 329 326 324 322 321 315 318 319 322
331 331 331 330 329 329 329 329 329 329 330 332 333 333 333 334 334 334 334 334 334 333 334 333 334 334 333 333 333 333 333 332 332 334 335 335 335 336 335 335 335 335 336 335 334 335 335 334 334 333 333 333 332 332 331 330 326 322 320 317 317 319 320
330 331 331 331 331 331 331 331 331 331 331 332 332 334 334 334 334 334 333 333 333 333 333 333 333 334 334 334 334 333 333 332 332 332 334 335 336 336 335 335 335 335 335 335 335 335 335 335 334 333 333 333 333 332 332 330 329 326 319 319 316 319 320
331 330 331 332 332 333 332 332 332 332 332 332 332 333 334 334 334 334 333 333 333 333 334 334 333 333 334 334 334 334 334 334 333 332 333 334 337 336 336 335 336 336 335 334 334 335 335 334 335 334 333 334 333 333 332 330 328 326 321 319 317 317 318
331 331 332 332 332 333 333 332 333 333 333 332 332 333 333 334 334 334 334 334 334 334 334 334 334 334 334 334 334 334 334 334 334 333 333 333 334 335 336 336 336 336 336 334 334 335 335 335 335 335 334 334 333 332 331 329 328 326 324 320 318 315 315
330 332 332 333 333 333 333 332 332 333 333 333 332 332 333 333 334 334 335 335 335 334 334 334 334 334 334 334 334 334 334 334 334 334 334 334 334 335 336 337 337 337 336 336 335 335 335 335 335 335 335 334 333 331 330 329 327 326 324 321 317 318 316
317 321 330 333 333 332 333 332 332 333 333 332 333 333 333 333 333 334 334 334 335 335 335 334 334 334 335 335 334 334 334 334 334 334 334 334 334 335 336 336 337 337 337 337 336 336 336 335 336 335 335 335 332 331 330 329 327 326 325 322 319 316 314
317 318 319 321 328 332 332 332 332 332 332 332 333 333 334 334 334 333 334 334 334 334 334 334 335 335 335 335 335 334 335 334 334 334 334 334 334 335 335 336 337 337 338 334 329 330 331 331 336 335 335 334 333 331 330 329 328 327 325 324 321 315 315
314 315 315 316 317 321 328 331 331 330 331 331 331 332 332 333 333 333 333 334 334 335 334 334 330 323 324 335 335 336 335 335 334 334 334 334 334 334 334 335 336 333 329 327 324 319 318 319 324 334 336 335 333 332 330 329 328 327 327 324 323 319 316
312 312 312 314 314 315 317 323 329 330 331 331 331 331 331 331 331 332 333 333 333 334 335 335 321 312 311 316 332 336 335 335 335 334 334 334 333 334 334 334 335 336 331 327 327 316 314 314 314 317 320 324 328 334 331 330 329 328 327 326 325 322 321
310 310 311 311 311 312 313 315 319 324 329 330 331 332 331 331 331 332 332 333 333 334 335 326 313 311 310 309 317 334 335 335 334 334 334 334 334 334 334 334 334 334 334 335 334 331 320 313 311 312 312 314 315 317 321 330 330 328 327 326 325 324 323
310 310 310 310 311 311 311 311 312 314 318 324 328 331 332 332 332 332 332 331 332 333 333 320 310 310 309 308 308 320 333 333 333 333 333 333 333 334 333 332 332 333 335 329 331 334 333 327 313 311 313 313 313 312 310 311 317 331 331 329 327 326 326
309 309 310 310 310 310 310 310 310 311 312 317 321 324 327 330 332 332 332 331 331 332 332 321 309 309 309 307 306 310 331 333 332 333 333 333 333 333 333 332 332 331 333 332 333 333 334 333 330 324 322 325 327 322 312 310 310 313 323 331 330 328 329
309 309 309 309 309 309 309 309 310 310 311 311 312 317 322 325 327 329 330 331 331 331 332 316 308 306 307 306 306 307 325 329 331 332 333 333 333 333 333 333 333 332 332 333 334 331 333 333 332 330 328 328 329 330 328 326 324 325 327 332 332 331 330
308 308 308 308 308 308 308 309 309 309 310 310 311 315 320 324 325 326 328 329 329 329 332 313 307 306 306 305 305 316 323 326 328 330 332 333 334 334 334 334 334 333 334 333 325 313 318 331 333 332 330 330 330 331 331 325 318 319 328 332 333 332 330
307 308 308 308 307 307 307 308 308 309 309 309 309 310 313 318 323 326 326 327 327 328 329 319 308 305 305 304 307 320 323 325 326 328 330 333 334 335 335 335 334 334 333 333 320 311 309 315 331 332 331 330 330 331 331 332 315 309 311 312 314 314 313
307 307 307 307 307 307 307 308 308 309 308 308 309 309 311 313 318 323 325 326 327 327 328 322 311 307 304 304 309 321 324 324 325 326 328 331 333 333 333 329 333 333 333 332 316 310 310 314 328 331 331 330 329 329 331 333 328 320 308 307 307 307 306
307 307 307 307 307 307 307 307 308 309 309 309 309 310 311 310 312 316 322 326 324 325 327 323 312 307 305 305 308 319 323 324 324 325 326 328 330 332 332 327 324 325 329 326 313 311 308 312 327 329 331 331 329 329 331 333 331 328 324 320 320 317 314
307 307 307 307 307 307 308 308 308 308 309 309 309 310 310 310 310 311 314 319 323 326 326 326 322 309 307 305 304 317 323 324 324 325 326 328 328 329 329 330 326 310 308 311 310 308 304 301 324 329 330 330 330 330 333 333 332 332 329 326 326 325 324
306 307 307 307 308 308 309 308 309 309 309 309 309 309 309 309 310 310 311 314 318 321 324 325 323 310 308 307 305 306 321 324 326 326 327 325 327 328 328 328 330 317 307 307 308 308 303 298 306 328 330 329 331 331 328 333 330 322 330 327 326 326 325
307 307 308 309 308 308 309 310 310 310 309 309 308 308 308 308 309 309 310 312 317 320 322 319 325 315 308 307 306 303 316 324 325 327 327 327 327 328 329 330 330 322 308 307 304 304 301 300 299 317 327 317 315 312 324 331 330 327 329 325 325 324 324
306 308 308 308 308 307 308 309 309 310 309 308 308 307 307 307 307 307 308 309 311 316 321 323 312 318 311 307 306 303 304 315 311 322 326 326 327 328 329 330 329 319 309 306 305 307 307 304 304 310 310 312 311 310 316 328 326 327 326 324 323 324 324
305 305 305 306 306 306 307 308 309 309 309 308 307 306 306 306 306 306 306 307 309 311 315 320 314 309 313 308 305 302 302 304 309 319 325 327 328 328 328 328 325 313 307 306 306 306 306 306 310 303 302 307 304 307 324 320 322 325 323 322 322 323 324
Wind_Speed
10 9 7 3 3 4 5 6 5 6 8 9 10 10 10 10 9 8 7 7 7 7 7 8 9 7 6 5 6 8 6 7 8 9 8 6 10 6 4 4 2 1 5 3 4 6 4 7 6 3 3 4 5 7 9 10 10 10 9 9 9 9 8
3 2 4 2 2 2 4 3 4 5 7 9 9 10 10 10 10 10 9 8 8 8 8 8 8 8 9 8 8 8 8 8 8 7 7 8 7 7 5 5 1 1 3 2 4 2 3 3 3 6 7 2 2 4 7 8 9 10 10 10 10 9 8
4 4 4 4 6 5 5 4 3 4 6 8 9 9 9 10 10 10 10 10 10 9 9 9 9 9 9 9 10 10 10 10 7 7 10 8 7 5 7 6 5 1 1 2 2 4 1 1 4 7 7 8 8 8 5 7 8 8 8 8 9 9 9
7 6 4 3 3 3 7 8 6 5 6 8 7 8 9 9 10 10 10 10 10 10 10 10 10 10 10 10 10 10 10 11 8 7 7 7 8 7 6 7 8 7 7 5 4 5 2 2 1 3 4 7 9 6 6 6 6 6 7 7 9 9 9
10 9 9 7 5 3 1 5 9 8 6 6 6 7 9 9 9 10 10 10 10 10 11 10 9 9 9 8 8 9 9 10 8 7 7 7 8 8 7 7 8 7 6 6 5 6 6 4 5 3 5 2 3 5 1 3 3 5 6 7 8 9 10
6 5 5 7 8 6 5 5 3 5 7 10 7 7 8 9 8 8 9 10 10 10 10 9 9 9 9 8 9 9 10 10 9 8 8 9 9 9 9 6 6 7 8 7 6 7 6 4 5 4 4 3 5 4 2 2 5 5 7 8 8 8 8
6 6 6 6 5 7 8 6 1 3 8 10 8 8 4 3 6 6 5 6 6 6 8 9 8 8 9 9 9 10 10 9 8 9 9 8 7 8 7 7 8 7 7 7 7 7 7 6 5 7 5 3 1 3 1 3 1 4 5 7 7 7 7
8 8 7 7 8 8 8 8 5 2 6 6 7 7 7 7 6 5 4 5 6 6 6 8 7 8 8 8 8 9 9 8 9 9 9 9 9 9 8 9 8 8 8 8 7 8 7 9 9 7 7 5 3 1 3 2 3 9 6 5 7 7 8
7 6 6 6 7 8 9 10 9 6 9 9 8 6 7 9 10 10 8 8 7 7 7 8 8 7 7 8 8 8 10 7 9 10 9 9 10 10 10 9 7 9 8 7 7 8 8 8 8 7 8 8 8 6 3 5 5 7 6 5 4 7 7
7 9 9 11 11 8 7 9 11 13 14 12 10 7 7 7 8 9 10 10 10 9 8 8 9 8 7 8 8 9 10 9 9 10 9 9 9 9 8 9 9 8 7 6 6 7 8 7 8 8 9 10 8 7 5 7 9 7 7 8 7 7 9
9 9 8 9 10 9 4 2 2 6 10 12 9 7 7 9 10 11 9 9 8 9 10 9 9 9 8 8 9 9 9 8 9 9 10 10 10 9 8 8 8 8 7 7 8 8 8 8 8 8 8 7 8 10 7 8 8 7 6 6 7 6 7
9 11 11 8 9 9 9 9 9 11 10 7 6 8 6 4 5 7 8 8 7 8 9 10 9 8 8 9 9 9 8 8 9 10 10 10 10 9 10 11 9 9 8 8 8 8 8 7 8 7 8 7 8 9 8 7 5 5 7 8 9 7 7
9 8 7 5 7 10 11 11 11 10 11 9 10 11 10 10 10 10 9 8 8 8 6 3 2 2 1 3 8 8 8 9 10 11 10 9 8 9 11 12 12 11 9 7 8 8 8 8 7 8 8 8 8 8 7 7 9 9 6 9 8 8 8
7 7 5 4 4 5 6 7 9 10 9 10 9 9 9 11 12 11 10 11 12 12 12 10 8 7 7 7 6 9 11 10 11 11 10 11 11 11 12 12 13 12 9 9 9 8 8 8 8 8 8 8 8 7 8 8 9 9 3 3 4 7 6
6 5 7 6 6 6 7 7 8 8 10 12 10 10 11 11 12 10 10 12 13 13 13 14 13 11 10 11 11 7 8 13 12 11 10 12 13 11 11 12 13 12 10 11 9 10 9 8 8 8 8 8 9 9 8 8 9 8 8 1 4 2 4
6 7 8 7 8 8 8 8 6 7 8 9 8 9 11 11 11 11 12 14 14 13 14 14 13 13 12 11 11 11 10 8 12 12 12 14 13 12 11 12 13 11 9 10 11 10 9 10 9 10 11 8 9 9 8 9 7 7 7 6 4 5 6
5 6 7 7 8 9 8 8 7 7 8 7 8 7 7 8 9 9 11 13 12 12 12 12 12 12 13 13 12 12 12 12 10 12 14 14 13 12 13 13 13 12 11 12 12 10 10 9 10 10 10 10 9 9 8 7 8 6 5 6 5 7 6
5 5 6 6 7 7 7 8 8 10 10 10 9 8 8 6 6 7 9 11 11 11 11 12 12 12 11 11 12 12 12 12 12 12 12 13 13 13 13 15 15 12 11 12 12 11 11 12 11 10 11 10 9 8 6 7 7 6 6 7 5 4 4
6 7 7 7 8 8 8 8 9 9 9 10 10 10 10 9 9 9 9 9 9 9 8 7 9 10 11 12 12 12 11 11 12 13 13 13 13 14 14 15 14 12 12 14 14 12 12 14 12 11 12 10 8 6 7 7 7 7 7 6 7 5 4
5 6 7 8 8 8 8 10 10 10 9 9 9 10 10 11 9 10 11 10 10 9 9 9 8 8 8 8 11 12 12 12 12 12 13 14 14 14 15 14 14 13 14 15 15 13 12 12 12 13 12 11 8 8 8 8 7 8 7 6 5 6 7
5 5 5 6 7 8 8 8 8 9 8 9 10 11 10 11 10 10 11 11 11 11 11 10 10 10 9 10 11 12 13 13 13 13 13 14 15 14 15 15 15 14 15 15 15 13 12 12 11 12 11 9 9 9 10 8 8 8 8 7 7 6 5
5 4 4 5 6 7 7 7 7 7 7 8 9 10 10 10 10 10 10 11 11 11 11 11 10 11 12 12 11 11 12 12 13 13 13 14 14 13 13 13 15 15 16 19 19 16 14 13 11 11 11 10 10 10 9 9 9 9 8 8 6 3 6
5 5 5 5 5 6 6 6 6 7 7 9 9 9 9 10 10 11 11 11 11 11 10 9 12 17 15 12 11 10 10 11 11 11 12 11 12 12 13 13 14 21 21 21 19 18 18 18 17 14 11 11 12 11 11 11 10 10 10 10 9 8 8
6 5 5 5 5 6 7 5 4 5 7 8 9 10 10 11 11 11 12 12 12 11 11 11 18 19 20 20 15 13 13 13 12 12 12 12 12 12 12 12 13 16 18 19 18 20 19 19 18 18 17 17 16 15 13 13 12 11 11 11 9 9 11
6 6 6 6 6 6 7 6 6 4 5 6 8 9 10 11 11 11 11 12 12 12 12 15 20 21 21 21 19 14 13 12 12 13 13 14 14 13 13 11 12 12 13 17 16 15 16 18 18 18 18 19 20 20 19 17 14 11 12 11 10 12 11
7 7 7 7 7 7 8 8 7 6 6 6 7 8 10 11 11 11 11 12 13 13 13 16 19 21 21 21 21 18 12 13 13 13 13 15 15 13 11 11 12 12 13 17 17 16 14 13 16 20 20 20 21 21 21 22 21 18 13 13 14 13 14
7 7 7 7 7 7 7 8 8 8 8 7 7 8 9 11 11 12 11 12 12 12 13 14 19 21 21 21 21 19 14 15 15 15 15 15 14 14 14 13 13 13 12 15 14 16 15 13 12 13 14 14 14 18 22 24 23 22 18 16 15 16 14
9 8 7 7 8 8 8 8 9 8 8 9 9 9 10 11 11 11 12 12 12 12 12 16 17 20 20 21 22 19 14 14 14 14 15 15 16 16 16 14 14 15 15 14 11 13 15 14 14 14 16 16 15 15 16 17 16 15 15 14 16 17 11
9 9 8 8 7 8 8 8 9 9 9 9 9 9 10 10 11 11 12 12 12 13 13 17 17 18 21 21 23 15 14 14 14 14 15 15 15 15 13 12 12 13 14 13 13 16 17 16 15 17 17 15 14 14 14 18 20 18 16 15 14 13 10
10 10 9 9 9 8 8 9 9 8 10 11 11 10 10 11 11 11 12 12 13 13 13 16 17 18 20 22 18 13 13 13 13 15 15 15 14 12 10 10 11 12 14 13 15 20 22 23 18 18 16 16 14 13 15 14 14 19 22 22 21 18 16
10 10 10 10 11 10 9 8 9 8 9 11 12 12 10 11 11 11 13 13 13 13 14 16 19 19 20 22 20 15 13 12 14 14 14 13 11 11 13 20 17 15 15 15 19 23 26 21 19 18 16 16 15 15 16 13 7 12 19 17 16 14 14
9 10 11 11 11 11 11 10 9 9 10 10 12 12 12 12 12 12 11 13 16 17 14 15 19 19 21 22 19 13 13 12 14 14 13 13 12 12 13 14 19 17 16 18 23 24 23 17 15 17 17 16 16 16 18 15 12 12 10 11 12 9 8
10 10 11 12 11 11 10 10 10 10 10 10 11 12 12 13 13 13 12 13 13 14 15 15 16 20 20 22 22 16 13 13 15 15 13 13 13 13 14 14 15 20 21 22 23 22 16 16 15 16 16 15 15 18 18 14 13 14 12 14 16 14 14
11 12 11 11 11 11 10 11 11 11 12 11 12 12 14 14 14 14 13 13 13 14 14 15 16 20 21 23 23 19 14 15 15 14 14 13 13 14 14 14 14 18 23 26 27 25 15 14 17 16 16 14 17 20 20 12 14 16 10 10 10 9 10
9 10 11 11 11 12 11 12 12 13 12 12 14 15 14 13 13 13 12 13 13 14 15 19 16 19 22 23 23 22 16 15 16 15 16 14 14 14 15 14 14 19 24 24 20 18 18 17 22 17 18 23 25 26 16 7 7 8 9 7 7 8 9
10 8 9 11 12 14 13 14 14 14 14 14 15 15 14 13 12 13 13 13 13 13 12 12 18 17 20 22 23 21 24 20 21 18 16 16 16 16 15 15 15 21 23 24 24 26 25 25 21 16 26 29 28 22 11 7 8 9 8 8 8 10 10
11 10 12 12 12 13 13 13 13 12 13 13 12 13 11 11 12 13 14 14 13 13 13 12 14 18 19 22 20 21 24 26 24 18 17 16 15 15 14 15 16 22 23 25 26 25 25 19 11 13 22 25 8 8 7 6 1 5 8 9 11 11 11
Wind_Direction
183 196 202 227 274 271 245 230 197 193 198 205 207 206 204 204 205 207 205 208 212 211 204 205 203 202 198 204 201 209 193 185 191 190 194 184 188 209 218 235 221 87 166 130 157 179 159 183 224 269 281 219 185 197 194 191 193 194 193 198 194 192 190
138 86 31 25 311 294 278 269 225 207 203 211 213 208 205 202 203 206 206 210 211 211 209 207 204 197 197 196 198 202 203 197 194 191 179 197 195 198 182 247 262 160 181 228 173 129 136 170 251 213 222 260 264 225 208 198 194 194 194 196 196 190 188
96 84 67 25 346 324 285 270 254 221 213 216 215 213 209 204 203 204 207 211 212 210 209 208 202 198 200 201 200 201 204 198 195 190 194 193 196 191 191 174 192 184 196 232 192 212 350 143 169 203 210 200 218 230 196 207 201 199 196 194 191 192 191
136 127 114 93 73 10 308 290 260 234 220 221 213 215 215 210 208 206 208 211 210 210 209 208 202 200 200 201 201 200 207 203 190 197 204 196 189 191 193 186 197 185 190 195 203 203 167 158 85 228 207 213 219 233 228 207 203 202 196 189 190 195 192
167 164 163 164 134 120 79 318 307 304 270 239 221 220 218 215 213 213 211 211 212 209 211 208 204 200 198 197 197 199 207 210 195 189 197 205 199 200 198 195 201 191 198 203 196 192 200 206 179 196 203 198 281 251 332 191 222 206 201 199 195 192 195
132 158 172 148 144 132 100 61 353 280 287 286 252 232 233 223 223 223 217 218 219 214 214 210 208 199 195 194 195 198 203 205 201 193 199 208 202 200 205 196 196 199 208 200 178 193 210 184 177 189 221 182 210 229 241 154 212 216 207 210 203 198 193
149 150 149 149 167 144 132 124 139 249 222 235 266 271 258 258 246 249 251 253 253 243 227 221 211 203 196 197 195 198 203 204 202 202 205 210 210 211 194 196 203 203 213 204 197 187 196 181 201 203 183 198 205 232 299 194 208 179 239 223 213 206 196
175 176 177 162 155 145 136 138 146 185 280 266 228 221 212 203 211 215 225 238 242 246 242 234 224 212 203 201 202 202 203 201 206 206 208 204 209 206 201 203 205 204 209 206 195 205 192 199 196 186 167 184 248 243 228 211 221 215 215 208 201 212 207
188 183 170 162 164 165 159 156 158 177 243 254 259 245 215 200 199 200 201 215 220 224 230 233 229 222 213 207 208 204 208 203 206 211 214 206 214 212 207 205 200 215 209 204 199 202 200 199 196 181 181 184 183 230 226 225 214 237 206 208 221 213 205
203 199 190 185 175 183 182 174 174 193 211 215 224 224 214 208 206 202 205 209 212 214 216 221 225 225 220 217 214 210 211 207 205 212 213 212 216 212 214 204 209 214 215 204 205 205 205 201 199 189 186 187 186 186 194 219 227 225 214 201 204 218 200
207 219 214 193 179 171 185 245 214 203 212 219 221 217 209 202 202 203 207 211 213 214 217 215 214 221 222 224 222 218 215 206 210 213 214 212 214 210 212 212 210 215 207 198 207 204 202 201 195 194 197 200 180 193 191 203 236 207 219 206 212 210 192
217 221 221 196 173 175 182 188 200 213 216 210 222 228 226 229 218 211 205 206 205 218 224 221 211 213 224 229 227 225 220 211 212 216 215 211 215 207 210 215 212 217 199 199 202 204 205 199 201 196 203 195 200 201 187 191 233 255 190 205 218 206 189
215 229 239 214 183 188 194 198 207 216 221 215 209 201 196 195 198 197 194 189 189 187 196 198 135 144 91 274 280 262 233 219 220 219 218 212 215 212 212 215 215 215 205 196 203 204 205 204 200 200 201 201 206 204 183 189 217 245 201 201 205 205 191
239 232 235 238 224 219 221 216 215 214 221 225 210 208 206 208 211 204 198 200 205 206 204 199 198 194 190 186 218 265 270 244 224 226 218 217 216 216 216 219 219 218 201 201 206 206 208 204 203 208 205 202 207 202 190 198 217 245 277 225 185 201 192
223 237 249 231 224 225 228 231 228 222 221 229 221 218 212 214 219 206 201 211 213 213 212 207 193 186 190 191 192 204 250 260 248 229 224 224 219 219 216 220 224 221 209 209 206 211 206 204 203 207 212 207 211 207 204 196 219 221 238 265 203 181 175
217 219 219 219 226 229 229 232 230 233 240 244 238 232 231 225 223 213 205 210 213 213 213 210 199 187 186 190 193 197 204 232 260 253 232 230 227 222 221 222 225 221 215 215 213 214 206 210 205 209 214 212 217 215 205 210 202 221 216 231 195 180 187
219 225 229 225 227 226 223 227 223 227 237 245 251 251 255 251 241 229 217 215 212 212 215 216 207 196 189 186 190 202 201 201 216 250 259 242 233 228 225 227 227 220 215 218 217 211 210 210 209 212 216 217 218 217 210 206 216 210 196 205 213 191 191
273 256 251 251 250 248 238 236 233 227 224 223 227 236 240 238 245 239 232 229 221 214 217 220 217 205 195 188 191 200 201 199 202 211 235 258 252 233 233 230 229 220 216 222 222 216 211 211 213 211 216 217 216 214 209 205 213 204 187 203 198 206 171
264 263 260 254 249 246 240 248 249 241 231 227 224 227 227 220 217 226 233 237 234 228 225 238 250 236 207 195 195 199 204 204 205 209 212 222 248 254 237 236 234 224 218 220 224 220 215 214 212 214 217 216 210 200 207 210 206 211 209 203 175 175 182
270 255 248 247 245 238 225 216 224 236 236 234 233 231 228 227 215 215 222 224 228 228 226 222 227 239 241 224 209 203 205 210 212 215 215 216 218 240 250 241 239 232 225 223 223 219 217 218 214 216 214 213 201 196 205 207 206 210 211 199 201 193 183
287 271 265 259 250 244 235 224 221 223 226 231 233 234 233 229 226 217 220 220 221 220 221 217 211 218 223 225 222 215 207 209 213 216 220 218 221 218 236 245 242 237 233 231 225 220 213 217 216 218 211 203 197 196 204 206 206 209 207 210 198 193 196
290 289 279 273 271 261 250 241 236 229 225 232 235 238 237 235 237 234 226 223 221 218 219 217 213 211 215 217 220 226 222 213 212 215 221 223 227 225 224 236 247 241 238 237 231 222 216 213 211 216 209 196 195 195 200 204 208 205 212 209 215 175 182
297 297 300 293 286 281 273 260 248 244 239 236 239 240 239 236 234 234 232 228 224 220 217 217 217 214 209 210 211 217 225 227 222 220 222 226 231 230 229 227 240 248 243 241 237 229 223 217 213 213 207 196 193 192 198 201 205 208 205 208 210 191 199
298 298 292 292 291 293 289 281 257 242 245 245 243 243 239 239 236 234 232 231 228 223 219 217 210 208 210 206 206 210 215 220 219 219 222 223 228 225 226 229 238 250 252 246 239 232 226 221 214 214 209 201 199 193 192 200 209 202 203 212 205 201 215
297 295 298 293 291 289 292 292 285 264 244 240 242 243 245 242 240 237 234 232 229 225 223 218 209 209 208 208 208 211 214 219 219 219 219 223 225 225 223 219 225 238 246 250 242 235 233 227 218 214 210 203 202 201 196 195 201 199 205 208 205 214 211
315 319 318 318 315 316 310 305 300 291 271 252 244 240 243 244 244 240 234 232 230 226 228 218 210 207 208 207 208 209 216 216 221 224 221 222 225 225 225 224 225 225 234 247 248 241 230 226 224 219 212 211 207 202 205 207 199 199 196 202 210 214 213
339 334 332 330 328 324 321 312 307 303 295 279 259 250 244 244 244 243 240 237 235 234 230 227 214 211 209 207 206 203 215 215 219 223 224 224 226 222 222 220 225 231 224 231 233 239 234 220 219 221 223 219 215 212 209 208 208 205 194 202 206 218 215
323 320 317 316 314 311 307 305 303 301 300 295 287 270 254 247 243 242 242 240 241 240 236 229 219 216 217 213 212 203 213 216 220 223 223 221 223 223 221 217 218 228 233 232 226 234 241 230 220 219 219 219 216 215 213 216 211 206 205 210 212 220 206
312 311 309 308 303 300 300 296 297 298 293 288 282 280 272 258 247 242 240 241 241 243 244 234 224 219 220 220 217 212 215 218 223 227 228 225 224 225 226 217 216 222 230 232 226 231 237 237 227 222 221 221 221 221 222 220 210 205 207 213 216 216 205
306 302 302 298 293 289 288 288 285 287 288 288 283 274 271 263 256 247 243 240 239 242 244 240 229 221 221 223 220 222 219 220 219 223 228 227 225 222 219 218 215 219 224 225 217 222 226 222 230 226 220 219 220 221 231 229 209 210 214 215 216 214 198
297 299 296 295 293 289 282 274 275 274 274 280 281 279 274 270 262 253 246 242 236 239 242 239 232 226 222 223 217 221 221 223 226 223 226 228 223 217 208 203 207 211 219 224 221 223 229 217 219 225 219 217 217 222 232 227 190 214 222 227 231 228 210
290 291 292 289 290 289 285 281 275 271 266 268 270 274 271 268 265 258 252 246 243 240 242 240 234 229 226 225 221 223 223 222 227 227 221 220 219 223 226 220 216 213 212 223 225 225 224 210 209 225 227 217 216 220 228 219 202 209 204 211 228 222 234
292 289 287 287 285 282 281 281 274 272 270 265 266 265 266 264 263 260 255 249 244 243 245 245 239 231 230 230 221 218 223 225 227 230 221 218 219 224 226 228 226 219 218 223 229 227 218 198 195 220 234 228 217 223 228 217 203 212 207 206 217 211 216
296 293 287 285 285 281 278 276 276 272 271 268 263 262 259 259 259 260 258 256 252 246 242 243 243 234 234 233 227 209 225 222 227 229 226 216 217 220 221 223 228 216 211 218 223 227 213 196 200 208 227 236 229 225 224 206 207 209 206 212 221 216 220
292 292 293 289 287 284 281 278 274 273 268 266 264 260 256 255 255 257 258 255 255 252 243 238 240 238 233 235 233 212 216 225 221 226 228 223 217 218 219 219 222 217 210 212 208 205 201 196 201 206 207 229 234 230 229 197 176 171 193 194 196 207 215
300 300 296 296 294 290 286 281 277 272 267 263 261 258 254 253 254 257 258 255 254 252 249 245 236 240 239 233 231 219 215 221 220 221 226 226 218 216 216 219 222 217 210 202 194 199 200 205 205 201 202 216 229 219 176 154 146 162 171 180 186 205 210
307 301 296 292 287 281 280 276 271 267 263 260 258 255 250 247 248 251 252 256 252 249 248 245 242 235 240 239 228 217 216 218 219 220 223 229 224 217 215 216 217 210 204 200 198 201 205 207 220 217 207 218 209 146 85 81 98 207 190 189 201 206 208